Flag for Finland Weather past 2 weeks in Tampere, Finland

Now
34 °F

Partly sunny.


Feels Like: 30 °F
Forecast: 30 / 36 °F
Wind: 5 mph from Southwest

Location: Tampere / Pirkkala

Current Time: Mar 5, 2015 at 12:53:51 PM

Latest Report: Mar 5, 2015 at 12:20 PM


Visibility: N/A

Pressure: 30.21 "Hg

Humidity: 93%

Dew point: 32 °F

Location of TampereLocation

Historic Weather in Tampere — Graph

°F

Tampere temperature yesterday

Maximum temperature yesterday: 34 °F (at 12:20 AM)
Minimum temperature yesterday: 32 °F (at 12:50 AM)
Average temperature yesterday: 33 °F

Past Weeks' High & Low Weather Summary

 TemperatureHumidityPressure
High39 °F (Feb 19, 4:50 PM)100% (Feb 19, 3:20 AM)30.18 "Hg (Feb 19, 3:20 AM)
Low25 °F (Feb 18, 6:20 PM)65% (Feb 18, 1:20 PM)29.06 "Hg (Feb 22, 9:50 AM)
Average34 °F93%29.67 "Hg
* Reported Feb 18 11:20 AM — Mar 5 11:20 AM, Tampere, Weather by CustomWeather, © 2015

Note: Actual official high and low records may vary slightly from our data, if they occured in-between our weather recording intervals... More about our weather records

Advertising

Tampere weather history for previous 24 hours

 ConditionsComfort  
Time TempWeatherWind HumidityBarometerVisibility
11:20 AM
Thu, Mar 5
32 °FPartly sunny.5 mph100%30.18 "HgN/A
10:50 AM32 °FPartly sunny.5 mph93%30.18 "HgN/A
10:20 AM32 °FPartly sunny.5 mph93%30.15 "HgN/A
9:50 AM32 °FPartly sunny.6 mph93%30.15 "HgN/A
9:20 AM32 °FPartly sunny.6 mph93%30.15 "HgN/A
8:50 AM32 °FBroken clouds.6 mph100%30.12 "HgN/A
8:20 AM32 °FLight snow. Broken clouds.3 mph100%30.12 "Hg5 mi
7:50 AM32 °FSnow flurries. Broken clouds.5 mph100%30.09 "HgN/A
7:20 AM32 °FBroken clouds.5 mph100%30.09 "HgN/A
6:50 AM32 °FSleet. Partly cloudy.3 mph100%30.09 "Hg4 mi
6:20 AM32 °FSnow flurries. Mostly cloudy.3 mph100%30.07 "Hg1 mi
5:20 AM30 °FMostly cloudy.3 mph100%30.07 "HgN/A
4:50 AM30 °FPassing clouds.2 mph100%30.04 "HgN/A
3:50 AM32 °FPartly cloudy.5 mph100%30.01 "HgN/A
3:20 AM32 °FLight snow. Passing clouds.5 mph100%30.01 "HgN/A
2:50 AM32 °FSnow flurries. Partly cloudy.6 mph100%30.01 "HgN/A
2:20 AM32 °FLight snow. Mostly cloudy.5 mph100%29.98 "HgN/A
1:50 AM32 °FSleet. Passing clouds.5 mph100%29.98 "HgN/A
1:20 AM32 °FLight snow. Partly cloudy.3 mph100%29.95 "HgN/A
12:50 AM32 °FLight snow. Partly cloudy.3 mph100%29.95 "HgN/A
12:20 AM32 °FLight snow. Mostly cloudy.5 mph100%29.92 "HgN/A
11:20 PM
Wed, Mar 4
32 °FLight snow. Overcast.7 mph100%29.89 "Hg4 mi
10:50 PM32 °FLight snow. Mostly cloudy.7 mph100%29.89 "Hg5 mi
10:20 PM32 °FLight snow. Mostly cloudy.8 mph100%29.86 "Hg3 mi
9:50 PM32 °FLight snow. Mostly cloudy.8 mph100%29.86 "Hg1 mi
9:20 PM32 °FLight snow. Mostly cloudy.8 mph100%29.86 "Hg3 mi
8:50 PM32 °FLight snow. Overcast.8 mph100%29.83 "Hg2 mi
8:20 PM32 °FLight snow. Mostly cloudy.8 mph100%29.83 "Hg2 mi
7:50 PM32 °FLight snow. Mostly cloudy.7 mph100%29.83 "Hg2 mi
7:20 PM32 °FLight snow. Mostly cloudy.8 mph100%29.80 "Hg2 mi
6:50 PM32 °FLight snow. Overcast.7 mph100%29.80 "HgN/A
6:20 PM34 °FLight snow. Mostly cloudy.8 mph100%29.77 "Hg6 mi
5:50 PM34 °FSleet. Broken clouds.8 mph100%29.77 "Hg4 mi
5:20 PM34 °FSleet. Cloudy.8 mph100%29.74 "HgN/A
4:50 PM34 °FSleet. Broken clouds.9 mph100%29.74 "Hg6 mi
4:20 PM34 °FSleet. Cloudy.9 mph100%29.71 "Hg4 mi
3:50 PM34 °FLight rain. Partly sunny.9 mph100%29.71 "Hg2 mi
3:20 PM34 °FLight rain. Broken clouds.9 mph100%29.68 "HgN/A
2:50 PM34 °FBroken clouds.12 mph100%29.65 "HgN/A
2:20 PM34 °FBroken clouds.9 mph100%29.65 "HgN/A
1:50 PM34 °FLight snow. Broken clouds.10 mph100%29.65 "HgN/A
1:20 PM34 °FBroken clouds.9 mph100%29.62 "HgN/A
12:50 PM34 °FPartly sunny.9 mph100%29.62 "HgN/A
12:20 PM34 °FPartly sunny.8 mph93%29.59 "HgN/A
Weather by CustomWeather, © 2015

See weather overviewHow to use our weather pages